EW5287 Weather Reports


time (UTC)temp
C
wind
direction
speed
KPH
gust
KPH
rain 1hr
cm
rain 24hr
cm
rain mn
cm
humidity
%
barometer
mb
20190426133245 16 217 0.0 0.0 0.00 0.05 0.00 57 1015.3
20190426131657 16 176 0.0 3.2 0.00 0.05 0.00 57 1015.2
20190426130009 16 203 0.0 6.4 0.00 0.05 0.00 58 1015.1
20190426124505 16 157 0.0 8.0 0.00 0.15 0.00 58 1015.1
20190426123004 15 201 0.0 0.0 0.00 0.15 0.00 57 1015.1
20190426121859 16 235 0.0 4.8 0.00 0.15 0.00 59 1015.0
20190426120200 15 238 0.0 3.2 0.00 0.15 0.00 62 1015.0
20190426114628 14 236 0.0 3.2 0.00 0.23 0.00 64 1015.1
20190426113157 14 140 0.0 0.0 0.00 0.23 0.00 64 1014.9
20190426111628 15 163 0.0 0.0 0.00 0.23 0.00 64 1014.9
20190426110126 14 202 0.0 0.0 0.00 0.23 0.00 69 1014.8
20190426104817 14 228 0.0 6.4 0.00 0.25 0.00 68 1014.8
20190426103152 13 179 0.0 8.0 0.00 0.25 0.00 68 1014.9
20190426101619 13 229 0.0 3.2 0.00 0.25 0.00 70 1014.8
20190426094535 13 158 0.0 9.7 0.00 0.25 0.00 73 1014.8
20190426093034 13 235 0.0 3.2 0.00 0.25 0.00 73 1014.9
20190426091545 12 198 0.0 4.8 0.00 0.25 0.00 76 1014.9
20190426090115 12 180 0.0 3.2 0.00 0.25 0.00 76 1014.8
20190426084523 12 222 0.0 0.0 0.00 0.25 0.00 79 1014.8
20190426083015 11 205 0.0 0.0 0.00 0.25 0.00 78 1014.7
20190426081517 11 198 0.0 0.0 0.00 0.25 0.00 80 1014.7
20190426080012 11 251 0.0 1.6 0.00 0.25 0.00 83 1014.3
20190426074646 11 234 0.0 0.0 0.00 0.25 0.00 84 1014.3
20190426073130 10 202 0.0 6.4 0.00 0.25 0.00 84 1014.0
20190426071646 10 260 0.0 6.4 0.00 0.25 0.00 85 1014.1
20190426070036 10 249 0.0 1.6 0.00 0.25 0.00 87 1014.3
20190426064508 9 199 0.0 0.0 0.00 0.25 0.00 89 1014.4
20190426063007 8 199 0.0 3.2 0.00 0.25 0.00 89 1014.3
20190426061622 8 187 0.0 0.0 0.00 0.25 0.00 89 1013.7
20190426060228 8 175 0.0 0.0 0.00 0.25 0.00 90 1013.3
20190426054722 8 207 0.0 0.0 0.00 0.25 0.00 90 1013.0
20190426053126 8 192 0.0 0.0 0.00 0.25 0.00 90 1012.9
20190426051636 8 196 0.0 0.0 0.00 0.25 0.00 90 1012.8
20190426050123 8 205 0.0 0.0 0.00 0.25 0.00 91 1012.8
20190426044642 8 228 0.0 0.0 0.00 0.25 0.00 91 1012.7
20190426043134 8 158 0.0 1.6 0.00 0.25 0.00 91 1012.4
20190426041646 8 136 0.0 0.0 0.00 0.25 0.00 91 1012.2
20190426034814 8 178 0.0 0.0 0.00 0.25 0.00 90 1012.1
20190426033146 8 178 0.0 0.0 0.00 0.25 0.00 90 1012.0
20190426031703 8 192 0.0 0.0 0.00 0.25 0.00 90 1012.0
20190426030243 8 204 0.0 0.0 0.00 0.25 0.00 90 1012.1
20190426024657 8 200 0.0 0.0 0.00 0.25 0.00 90 1011.9
20190426023241 8 164 0.0 0.0 0.00 0.25 0.00 90 1011.7
20190426021634 8 205 0.0 0.0 0.00 0.25 0.00 90 1011.4
20190426020228 8 202 0.0 0.0 0.00 0.25 0.00 90 1011.3
20190426014643 8 161 0.0 0.0 0.00 0.25 0.00 90 1011.3
20190426013116 8 162 0.0 0.0 0.00 0.25 0.00 90 1011.3
20190426011559 8 178 0.0 0.0 0.00 0.25 0.00 90 1011.2
20190426004633 8 156 0.0 0.0 0.00 0.25 0.00 90 1011.4
20190426003205 8 153 0.0 0.0 0.00 0.25 0.00 90 1011.3
20190426001644 8 151 0.0 0.0 0.00 0.25 0.00 90 1011.0
20190426000122 8 169 0.0 0.0 0.00 0.25 0.00 90 1010.7
20190425234620 8 194 0.0 0.0 0.00 0.25 0.00 89 1010.6
20190425233119 8 207 0.0 0.0 0.00 0.25 0.00 89 1010.6
20190425231646 8 182 0.0 0.0 0.00 0.25 0.00 89 1010.4
20190425230304 8 182 0.0 0.0 0.00 0.25 0.00 89 1010.4
20190425224607 8 246 0.0 0.0 0.00 0.25 0.00 89 1010.4
20190425223127 8 184 0.0 0.0 0.00 0.25 0.00 88 1010.3
20190425221624 8 215 0.0 0.0 0.00 0.25 0.00 88 1009.8
20190425214632 9 208 0.0 0.0 0.03 0.25 0.25 88 1009.7
20190425213206 9 150 0.0 0.0 0.03 0.25 0.25 88 1009.7
20190425211704 9 161 0.0 0.0 0.03 0.25 0.25 88 1009.6
20190425210131 9 266 0.0 6.4 0.03 0.25 0.25 88 1009.5
20190425204620 9 199 0.0 0.0 0.00 0.23 0.23 88 1009.3
20190425203216 9 223 0.0 0.0 0.00 0.23 0.23 88 1009.1
20190425201634 9 161 0.0 1.6 0.00 0.23 0.23 88 1009.1
20190425200129 9 181 0.0 0.0 0.00 0.23 0.23 88 1009.4
20190425194603 9 153 0.0 0.0 0.00 0.23 0.23 87 1009.1
20190425193206 10 176 0.0 0.0 0.00 0.23 0.23 87 1009.3
20190425191559 10 201 0.0 0.0 0.00 0.23 0.23 87 1009.4
20190425184717 10 174 0.0 0.0 0.00 0.23 0.23 87 1009.2
20190425183158 10 207 0.0 3.2 0.00 0.23 0.23 87 1009.0
20190425181554 10 180 0.0 1.6 0.00 0.23 0.23 86 1008.7
20190425180137 10 254 0.0 0.0 0.00 0.23 0.23 86 1008.8
20190425174639 10 150 0.0 0.0 0.00 0.23 0.23 86 1008.5
20190425173121 10 165 0.0 1.6 0.00 0.23 0.23 87 1008.4
20190425171611 10 169 0.0 0.0 0.00 0.23 0.23 88 1008.1
20190425170237 10 208 0.0 0.0 0.00 0.23 0.23 88 1008.3
20190425164616 10 167 0.0 0.0 0.00 0.25 0.23 88 1008.4
20190425163105 10 159 0.0 6.4 0.00 0.25 0.23 87 1008.5
20190425161641 10 182 0.0 0.0 0.00 0.25 0.23 83 1008.3
20190425154646 12 170 0.0 1.6 0.00 0.28 0.23 82 1007.3
20190425153154 12 184 0.0 1.6 0.00 0.28 0.23 84 1007.1
20190425151637 12 189 0.0 1.6 0.00 0.28 0.23 84 1006.8
20190425150209 12 178 0.0 3.2 0.00 0.28 0.23 86 1006.9
20190425144702 12 174 0.0 0.0 0.03 0.28 0.23 88 1006.5
20190425143207 11 230 0.0 0.0 0.03 0.28 0.23 88 1006.6
20190425141616 11 148 0.0 0.0 0.05 0.28 0.23 88 1006.7
20190425140138 11 166 0.0 3.2 0.03 0.25 0.23 89 1006.9
20190425134713 11 217 0.0 1.6 0.05 0.28 0.23 89 1006.7